Regional Weather Roundup
Issued by NWS

Home | Current Version | Previous Version | Graphics & Text | Print | Product List | Glossary On
Versions: 1 2 3 4 5 6 7 8 9 10 11 12 13 14 15 16 17 18 19 20 21 22 23 24 25 26 27 28 29 30 31 32 33 34 35 36 37 38 39 40 41 42 43 44 45 46 47 48 49 50
000
ASUS43 KFSD 302202
RWRSD

WEATHER ROUNDUP FOR SOUTH DAKOTA
NATIONAL WEATHER SERVICE SIOUX FALLS SD
500 PM CDT MON MAY 30 2016

NOTE: "FAIR" INDICATES FEW OR NO CLOUDS BELOW 12,000 FEET WITH NO
SIGNIFICANT WEATHER AND/OR OBSTRUCTIONS TO VISIBILITY.


SDZ001>005-009-010-012>017-302300-
NORTHWEST AND NORTH CENTRAL SOUTH DAKOTA

CITY           SKY/WX    TMP DP  RH WIND       PRES   REMARKS
BUFFALO          N/A     68  51  54 NW21      29.81F
FAITH            N/A     58  53  84 NW18G28   29.83R
MOBRIDGE       CLOUDY    68  55  63 E22G30    29.69F
$$

SDZ012>016-024>037-041>051-057-063-072>074-302300-
SOUTHWEST AND SOUTH CENTRAL SOUTH DAKOTA

CITY           SKY/WX    TMP DP  RH WIND       PRES   REMARKS
RAPID CTY ARPT CLOUDY    68  51  54 N23G31    29.85F
PIERRE         SUNNY     84  57  39 S17G25    29.70F
CUSTER         CLOUDY    66  38  35 W14G28    29.94S
ELLSWORTH AFB  CLOUDY    66  53  62 N23       29.85
PHILIP         CLOUDY    70  56  61 NW28G35   29.75R
PINE RIDGE     CLOUDY    77  45  32 W16G25    29.84R
WINNER         FAIR      80  58  46 S10       29.76F
$$

SDZ004>011-016>023-039-040-302300-
NORTHEAST SOUTH DAKOTA

CITY           SKY/WX    TMP DP  RH WIND       PRES   REMARKS
ABERDEEN       CLOUDY    83  55  38 S20       29.77F
WATERTOWN      MOSUNNY   81  55  40 S18G28    29.81F
BROOKINGS      SUNNY     80  59  48 S15G21    29.83F
SISSETON         N/A     86  50  28 S17       29.79F
$$

SDZ017-020-022-023-036>040-048>070-302300-
SOUTHEAST SOUTH DAKOTA

CITY           SKY/WX    TMP DP  RH WIND       PRES   REMARKS
SIOUX FALLS    CLOUDY    80  57  45 S13       29.83F
HURON          PTSUNNY   79  61  53 S16G24    29.76F
MITCHELL       PTSUNNY   82  61  48 S10       29.80F
YANKTON        SUNNY     86  52  30 S17G23    29.79F
$$

ABBREVIATIONS USED IN REMARKS
   TC - TEMPERATURE IN CELSIUS
  WCI - WIND CHILL INDEX
   HX - HEAT INDEX
  VSB - VISIBILITY




USA.gov is the U.S. government's official web portal to all federal, state and local government web resources and services.